Change the Weather History Date:

Saturday, October 29, 2011

  Actual Average (KVPZ) Record (KVPZ)
Temperature  
Mean Temperature 44 °F 48 °F  
Max Temperature 54 °F 58 °F 78 °F (1999)
Min Temperature 33 °F 39 °F 29 °F (2005)
Degree Days  
Heating Degree Days 22 17  
Month to date heating degree days 367  
Since 1 July heating degree days 497  
Cooling Degree Days 0 0  
Month to date cooling degree days 11  
Year to date cooling degree days 713  
Moisture  
Dew Point 31 °F    
Average Humidity 67    
Maximum Humidity 94    
Minimum Humidity 33    
Precipitation  
Precipitation 0.00 in 0.09 in 0.28 in (1998)
Month to date precipitation 3.08  
Year to date precipitation 31.83  
Sea Level Pressure  
Sea Level Pressure 30.04 in    
Wind  
Wind Speed 6 mph (West)    
Max Wind Speed 13 mph    
Max Gust Speed 18 mph    
Visibility 10 miles    
Events      
T = Trace of Precipitation, MM = Missing Value Source: NWS Daily Summary

Daily Weather History Graph

Daily Weather History Graph

Search for Another Location

Airport or City:

Trip Planner

Search our weather history database for the weather conditions in past years. The results will help you decide how hot, cold, wet, or windy it might be!

Date:

Astronomy

Oct. 29, 2011 Rise Set
Actual Time 7:14 AM CDT 5:45 PM CDT
Civil Twilight 6:45 AM CDT 6:14 PM CDT
Nautical Twilight 6:13 AM CDT 6:46 PM CDT
Astronomical Twilight 5:41 AM CDT 7:18 PM CDT
Moon 10:37 AM CDT 8:06 PM CDT
Length of Visible Light 11h 28m
Length of Day
10h 31m
Waxing Crescent, 12% of the Moon is Illuminated
Oct 29
Waxing Crescent
Nov 2
First Quarter
Nov 10
Full
Nov 18
Last Quarter
Nov 25
New

Hourly Weather History & Observations

Time (CDT) Temp. Windchill Dew Point Humidity Pressure Visibility Wind Dir Wind Speed Gust Speed Precip Events Conditions
12:15 AM 37.2 °F 33.6 °F 32.9 °F 84% 30.05 in 10.0 mi South 4.6 mph - N/A   Mostly Cloudy
12:35 AM 37.4 °F 32.8 °F 33.3 °F 85% 30.05 in 10.0 mi South 5.8 mph - N/A   Mostly Cloudy
12:55 AM 37.9 °F 35.5 °F 33.4 °F 84% 30.05 in 10.0 mi SSW 3.5 mph - N/A   Overcast
1:15 AM 37.8 °F 35.3 °F 33.4 °F 84% 30.04 in 10.0 mi SSW 3.5 mph - N/A   Overcast
1:35 AM 38.7 °F 34.3 °F 33.8 °F 83% 30.03 in 10.0 mi South 5.8 mph - N/A   Overcast
2:15 AM 38.8 °F 34.6 °F 33.8 °F 82% 30.03 in 10.0 mi SW 5.8 mph - N/A   Overcast
2:35 AM 38.7 °F 33.6 °F 33.1 °F 80% 30.03 in 10.0 mi NW 6.9 mph - N/A   Scattered Clouds
2:55 AM 37.6 °F 35.1 °F 32.7 °F 83% 30.03 in 10.0 mi West 3.5 mph - N/A   Clear
3:35 AM 34.9 °F 30.8 °F 32.2 °F 90% 30.03 in 10.0 mi South 4.6 mph - N/A   Mostly Cloudy
3:55 AM 36.3 °F 31.6 °F 33.4 °F 89% 30.02 in 10.0 mi SSW 5.8 mph - N/A   Overcast
4:15 AM 37.9 °F 33.5 °F 34.3 °F 87% 30.01 in 10.0 mi South 5.8 mph - N/A   Overcast
4:35 AM 39.0 °F 35.7 °F 35.1 °F 86% 30.01 in 10.0 mi SSW 4.6 mph - N/A   Overcast
4:55 AM 39.6 °F - 35.6 °F 86% 30.01 in 10.0 mi Calm Calm - N/A   Overcast
5:15 AM 38.7 °F 35.2 °F 35.1 °F 87% 30.01 in 10.0 mi SW 4.6 mph - N/A   Scattered Clouds
5:35 AM 37.2 °F 33.6 °F 33.8 °F 87% 30.01 in 10.0 mi SSW 4.6 mph - N/A   Scattered Clouds
5:55 AM 36.1 °F 32.3 °F 33.1 °F 89% 30.01 in 10.0 mi SSW 4.6 mph - N/A   Clear
6:15 AM 35.6 °F 31.7 °F 32.5 °F 89% 30.00 in 10.0 mi SW 4.6 mph - N/A   Clear
6:35 AM 35.1 °F 32.2 °F 32.2 °F 89% 30.00 in 10.0 mi SSW 3.5 mph - N/A   Clear
6:55 AM 34.0 °F 29.8 °F 32.0 °F 92% 30.00 in 10.0 mi SSW 4.6 mph - N/A   Clear
7:15 AM 33.3 °F 30.2 °F 31.8 °F 94% 30.01 in 10.0 mi SSW 3.5 mph - N/A   Scattered Clouds
7:35 AM 33.4 °F 30.4 °F 32.0 °F 94% 30.01 in 10.0 mi SSW 3.5 mph - N/A   Scattered Clouds
7:55 AM 33.8 °F 29.6 °F 32.0 °F 93% 30.02 in 10.0 mi SW 4.6 mph - N/A   Clear
8:15 AM 34.5 °F 30.4 °F 32.7 °F 93% 30.02 in 10.0 mi SW 4.6 mph - N/A   Clear
8:35 AM 36.7 °F 34.1 °F 33.8 °F 89% 30.03 in 10.0 mi SW 3.5 mph - N/A   Clear
8:55 AM 38.5 °F 35.0 °F 34.5 °F 86% 30.03 in 10.0 mi West 4.6 mph - N/A   Clear
9:15 AM 40.3 °F 36.3 °F 35.1 °F 82% 30.04 in 10.0 mi West 5.8 mph - N/A   Clear
9:35 AM 41.5 °F 37.8 °F 35.4 °F 79% 30.04 in 10.0 mi West 5.8 mph - N/A   Clear
9:55 AM 43.0 °F 38.2 °F 36.1 °F 77% 30.04 in 10.0 mi West 8.1 mph - N/A   Clear
10:15 AM 44.1 °F 40.1 °F 35.6 °F 72% 30.05 in 10.0 mi West 6.9 mph - N/A   Clear
10:35 AM 45.9 °F 41.7 °F 35.6 °F 67% 30.05 in 10.0 mi WNW 8.1 mph - N/A   Clear
10:55 AM 47.7 °F - 35.4 °F 63% 30.05 in 10.0 mi West 11.5 mph - N/A   Clear
11:15 AM 49.3 °F - 35.4 °F 59% 30.05 in 10.0 mi West 9.2 mph - N/A   Clear
11:35 AM 50.9 °F - 35.1 °F 55% 30.05 in 10.0 mi WNW 9.2 mph - N/A   Clear
11:55 AM 52.3 °F - 32.5 °F 47% 30.04 in 10.0 mi West 9.2 mph - N/A   Scattered Clouds
12:15 PM 52.9 °F - 29.7 °F 41% 30.04 in 10.0 mi NW 11.5 mph - N/A   Scattered Clouds
12:35 PM 53.2 °F - 27.5 °F 37% 30.04 in 10.0 mi West 12.7 mph - N/A   Mostly Cloudy
12:55 PM 54.3 °F - 25.9 °F 33% 30.03 in 10.0 mi NW 12.7 mph 18.4 mph N/A   Mostly Cloudy
1:15 PM 54.7 °F - 26.8 °F 34% 30.03 in 10.0 mi NW 11.5 mph 16.1 mph N/A   Overcast
1:35 PM 53.6 °F - 28.8 °F 39% 30.03 in 10.0 mi NNW 12.7 mph - N/A   Overcast
1:55 PM 50.9 °F - 28.8 °F 43% 30.03 in 10.0 mi NNW 11.5 mph - N/A   Scattered Clouds
2:15 PM 52.0 °F - 27.5 °F 39% 30.03 in 10.0 mi WNW 9.2 mph - N/A   Scattered Clouds
2:35 PM 54.1 °F - 25.9 °F 34% 30.03 in 10.0 mi West 10.4 mph - N/A   Scattered Clouds
2:55 PM 54.1 °F - 25.2 °F 33% 30.03 in 10.0 mi WNW 11.5 mph 17.3 mph N/A   Scattered Clouds
3:35 PM 53.8 °F - 24.8 °F 33% 30.03 in 10.0 mi WNW 10.4 mph - N/A   Scattered Clouds
3:55 PM 52.3 °F - 24.4 °F 34% 30.04 in 10.0 mi WNW 8.1 mph - N/A   Scattered Clouds
4:15 PM 52.5 °F - 25.3 °F 35% 30.04 in 10.0 mi NNW 10.4 mph 17.3 mph N/A   Mostly Cloudy
4:35 PM 50.2 °F - 28.4 °F 43% 30.05 in 10.0 mi NNW 6.9 mph - N/A   Mostly Cloudy
4:55 PM 49.1 °F - 29.3 °F 46% 30.05 in 10.0 mi North 9.2 mph - N/A   Scattered Clouds
5:15 PM 48.2 °F - 28.6 °F 47% 30.06 in 10.0 mi North 5.8 mph - N/A   Scattered Clouds
5:35 PM 46.6 °F - 28.9 °F 50% 30.07 in 10.0 mi North 5.8 mph - N/A   Scattered Clouds
5:55 PM 45.7 °F 42.7 °F 28.9 °F 52% 30.07 in 10.0 mi North 5.8 mph - N/A   Scattered Clouds
6:15 PM 43.7 °F 42.1 °F 29.5 °F 57% 30.07 in 10.0 mi North 3.5 mph - N/A   Clear
6:35 PM 42.3 °F - 29.5 °F 61% 30.08 in 10.0 mi Calm Calm - N/A   Clear
6:55 PM 42.3 °F - 29.1 °F 60% 30.09 in 10.0 mi Calm Calm - N/A   Clear
7:15 PM 39.7 °F - 29.5 °F 67% 30.10 in 10.0 mi Calm Calm - N/A   Clear
7:35 PM 36.9 °F - 30.2 °F 77% 30.10 in 10.0 mi Calm Calm - N/A   Clear
7:55 PM 36.3 °F - 30.9 °F 81% 30.10 in 10.0 mi Calm Calm - N/A   Clear
8:15 PM 35.2 °F - 31.5 °F 86% 30.11 in 10.0 mi Calm Calm - N/A   Clear
8:35 PM 35.1 °F - 31.3 °F 86% 30.11 in 10.0 mi Calm Calm - N/A   Clear
8:55 PM 34.0 °F - 30.4 °F 87% 30.12 in 10.0 mi Calm Calm - N/A   Clear
9:15 PM 32.9 °F - 30.7 °F 92% 30.12 in 10.0 mi Calm Calm - N/A   Clear
9:35 PM 32.2 °F - 30.6 °F 94% 30.13 in 10.0 mi Calm Calm - N/A   Clear
9:55 PM 32.0 °F - 30.0 °F 92% 30.13 in 10.0 mi Calm Calm - N/A   Clear
10:15 PM 31.5 °F - 29.8 °F 94% 30.13 in 10.0 mi Calm Calm - N/A   Clear
10:35 PM 31.6 °F - 29.8 °F 93% 30.13 in 10.0 mi Calm Calm - N/A   Clear
10:55 PM 30.6 °F - 28.9 °F 94% 30.13 in 7.0 mi Calm Calm - N/A   Clear
11:15 PM 30.2 °F - 28.8 °F 94% 30.13 in 10.0 mi Calm Calm - N/A   Clear
11:35 PM 29.8 °F - 28.2 °F 94% 30.13 in 10.0 mi Calm Calm - N/A   Clear